Home > Weather > Belgium > Liège > Past weeks

Flag for Belgium Weather past 2 weeks in Liège, Belgium

50 °F

Passing clouds.

Feels Like: 46 °F
Forecast: 45 / 51 °F
Wind: 12 mph from Southwest

Location: Bierset

Current Time: Dec 2, 2015 at 3:19:53 AM

Latest Report: Dec 2, 2015 at 2:50 AM

Visibility: N/A

Pressure: 30.36 "Hg

Humidity: 82%

Dew point: 45 °F

Location of LiègeLocation

Historic Weather in Liège — Graph


Liège temperature yesterday

Maximum temperature yesterday: 54 °F (at 12:20 PM)
Minimum temperature yesterday: 48 °F (at 5:50 AM)
Average temperature yesterday: 51 °F

Past Weeks' High & Low Weather Summary

High59 °F (Nov 17, 1:20 PM)100% (Nov 19, 4:50 PM)30.36 "Hg (Nov 19, 4:50 PM)
Low30 °F (Nov 23, 12:50 AM)63% (Nov 18, 2:20 PM)29.39 "Hg (Nov 21, 1:20 PM)
Average43 °F87%29.92 "Hg
* Reported Nov 17 1:20 AM — Dec 2 1:50 AM, Liège, Weather by CustomWeather, © 2015

Note: Actual official high and low records may vary slightly from our data, if they occured in-between our weather recording intervals... More about our weather records


Liège weather history for previous 24 hours

Time TempWeatherWind HumidityBarometerVisibility
1:50 AM
Wed, Dec 2
50 °FPassing clouds.12 mph82%30.33 "HgN/A
1:20 AM50 °FPassing clouds.13 mph88%30.33 "HgN/A
12:50 AM50 °FPassing clouds.12 mph88%30.33 "HgN/A
12:20 AM50 °FPassing clouds.10 mph88%30.33 "HgN/A
11:50 PM
Tue, Dec 1
50 °FPassing clouds.13 mph88%30.33 "HgN/A
11:20 PM50 °FPassing clouds.13 mph88%30.36 "HgN/A
10:50 PM50 °FPassing clouds.13 mph94%30.36 "HgN/A
10:20 PM50 °FPassing clouds.13 mph94%30.36 "HgN/A
9:50 PM50 °FPassing clouds.13 mph94%30.33 "HgN/A
9:20 PM50 °FPassing clouds.13 mph94%30.33 "HgN/A
8:50 PM52 °FPassing clouds.14 mph88%30.33 "HgN/A
8:20 PM52 °FPassing clouds.14 mph88%30.33 "HgN/A
7:50 PM50 °FPartly cloudy.12 mph100%30.33 "Hg1 mi
7:20 PM52 °FPartly cloudy.12 mph94%30.33 "Hg1 mi
6:50 PM52 °FPartly cloudy.13 mph94%30.33 "Hg6 mi
6:20 PM52 °FPartly cloudy.14 mph94%30.30 "Hg5 mi
5:50 PM52 °FPartly cloudy.15 mph94%30.30 "Hg5 mi
5:20 PM52 °FPartly cloudy.18 mph94%30.30 "Hg3 mi
4:50 PM52 °FPartly cloudy.15 mph94%30.30 "Hg3 mi
4:20 PM54 °FBroken clouds.14 mph88%30.27 "HgN/A
3:50 PM52 °FBroken clouds.14 mph94%30.27 "HgN/A
3:20 PM52 °FFog.13 mph94%30.27 "Hg1 mi
2:50 PM52 °FFog.15 mph94%30.27 "Hg1 mi
2:20 PM54 °FFog.15 mph88%30.27 "Hg3 mi
1:50 PM54 °FPartly sunny.15 mph88%30.27 "HgN/A
1:20 PM54 °FPartly sunny.15 mph88%30.27 "Hg4 mi
12:50 PM54 °FDrizzle. Fog.16 mph94%30.24 "Hg1 mi
12:20 PM54 °FDrizzle. Fog.16 mph94%30.24 "Hg1 mi
11:50 AM52 °FDrizzle. Fog.15 mph100%30.24 "Hg1 mi
11:20 AM52 °FFog.16 mph94%30.24 "Hg3 mi
10:50 AM52 °FLight rain. Fog.13 mph94%30.24 "Hg3 mi
10:20 AM50 °FLight rain. Fog.5 mph94%30.21 "Hg2 mi
9:50 AM48 °FLight rain. Fog.3 mph94%30.21 "Hg1 mi
8:50 AM48 °FLight rain. Fog.3 mph94%30.21 "Hg1 mi
7:50 AM48 °FLight rain. Fog.6 mph94%30.18 "Hg1 mi
7:20 AM48 °FLight rain. Fog.5 mph94%30.18 "Hg1 mi
6:50 AM48 °FLight rain. Fog.5 mph94%30.18 "Hg1 mi
6:20 AM48 °FLight rain. Fog.3 mph100%30.15 "Hg1 mi
5:50 AM48 °FRain. Fog.7 mph100%30.15 "Hg1 mi
5:20 AM52 °FFog.13 mph94%30.12 "Hg2 mi
4:50 AM52 °FPassing clouds.20 mph94%30.12 "Hg4 mi
4:20 AM52 °FPassing clouds.22 mph94%30.09 "Hg4 mi
3:50 AM52 °FPassing clouds.21 mph88%30.09 "Hg3 mi
3:20 AM50 °FPassing clouds.21 mph94%30.09 "Hg2 mi
Weather by CustomWeather, © 2015

See weather overviewHow to use our weather pages